Theta_e
328 328 327 325 326 328 328 327 326 327 327 327 327 326 324 323 322 321 320 321 321 323 324 327 331 332 331 331 330 330 329 330 330 330 330 329 327 325 322 320 318 318 322 325 325 321 316 311 309 308 307 307 306 306 305 305 305 304 304 304 304 304 304 304 304 304 305 305 306 306 306 306 307 307 307 307 307 308 308 308 308 308 309 308 308
328 328 327 326 327 328 329 328 327 326 326 327 327 327 327 325 325 324 324 323 324 325 325 327 329 331 331 331 330 329 328 329 330 330 330 329 328 326 323 320 318 317 321 325 326 323 320 314 310 309 308 307 307 306 306 306 305 305 304 304 304 304 304 304 303 304 304 304 305 305 305 305 306 306 307 307 307 307 308 308 308 308 309 309 309
328 328 326 326 326 327 327 327 327 326 326 326 326 326 327 327 326 326 326 326 326 326 326 327 327 328 328 329 328 328 328 328 330 331 330 329 328 326 323 321 319 317 319 323 324 323 322 319 312 309 309 307 307 307 306 306 305 305 306 305 305 304 304 304 304 304 303 304 304 304 304 304 305 305 305 306 306 307 307 308 308 308 309 309 309
327 327 326 325 325 327 327 327 326 326 326 326 326 326 327 328 327 326 326 327 327 327 327 328 328 328 327 327 328 328 329 330 330 331 330 327 326 324 323 322 319 317 318 320 321 320 322 322 317 312 310 307 307 307 306 308 308 309 309 308 307 306 305 304 304 304 303 304 303 303 303 303 303 303 304 304 305 306 306 307 308 308 308 309 309
326 326 326 325 325 327 327 327 327 326 326 326 326 326 325 326 327 327 326 326 327 327 327 327 328 328 328 327 328 329 329 329 330 330 329 327 324 323 322 321 318 316 317 318 318 318 318 322 323 319 311 306 307 309 311 314 315 315 314 312 310 308 307 306 305 304 303 303 303 303 303 303 303 302 302 303 303 305 306 307 308 308 308 309 309
325 325 326 326 325 326 326 327 327 326 326 326 326 326 325 324 325 327 326 326 327 327 327 327 327 328 327 327 327 328 328 329 329 328 327 326 324 324 322 320 317 317 318 319 319 317 316 322 325 321 312 310 312 315 319 321 321 321 320 319 317 315 314 314 313 310 308 305 303 303 302 302 302 302 302 303 304 305 306 308 308 309 309 309 309
326 325 325 326 327 327 326 326 326 326 325 325 326 326 325 325 325 327 326 327 327 327 327 327 327 327 327 327 326 327 328 329 329 327 327 326 324 324 322 320 320 319 319 321 321 318 316 319 322 318 315 316 318 319 322 323 323 324 325 324 324 322 321 321 321 320 318 314 310 309 307 306 306 306 306 307 308 308 309 309 310 310 309 309 309
326 325 325 326 327 328 327 327 326 326 325 325 325 325 325 325 325 326 327 327 327 328 327 327 327 327 327 327 326 328 329 328 328 328 327 326 325 324 323 322 322 321 321 322 323 320 317 316 316 317 318 321 322 322 324 325 325 326 327 327 327 327 326 326 326 325 325 323 321 318 315 314 313 312 312 312 312 311 312 311 311 310 310 309 309
325 326 327 328 328 328 328 327 327 326 325 325 326 325 326 326 325 325 326 327 327 328 327 326 326 326 326 326 326 328 328 327 328 328 327 326 325 325 324 323 322 322 323 324 324 324 321 319 318 319 321 324 325 326 327 327 327 327 327 327 328 328 327 328 328 327 327 326 326 324 322 320 318 316 315 315 316 316 317 317 316 314 312 311 310
326 327 328 329 329 329 329 328 327 327 326 326 326 326 325 325 325 325 326 328 328 327 327 326 326 326 326 326 326 327 327 327 328 328 326 326 327 325 324 324 323 323 325 325 326 326 325 325 325 325 325 326 327 327 327 327 327 326 327 327 327 327 327 327 328 328 327 327 327 326 325 325 323 321 319 318 320 322 323 323 323 322 319 315 312
328 328 328 327 326 327 328 328 328 328 327 327 326 326 326 324 324 325 326 327 327 327 327 326 326 327 326 326 326 326 326 327 329 328 326 326 326 325 325 325 325 325 326 327 327 327 327 327 327 326 326 327 327 327 327 326 326 325 325 326 326 326 326 327 327 327 327 327 327 326 325 326 327 326 324 322 323 324 325 326 326 326 325 322 317
326 325 325 324 324 326 327 327 327 328 327 327 326 326 326 324 324 326 326 327 327 327 327 326 327 326 326 326 325 326 326 327 329 328 326 325 325 326 326 326 326 326 327 327 327 327 327 326 326 326 326 326 326 326 325 325 325 325 324 324 325 325 326 326 326 325 326 326 327 326 326 326 327 326 326 325 325 325 326 326 326 326 326 325 323
324 324 324 324 325 326 326 326 326 327 326 325 325 325 326 324 323 326 326 326 327 327 326 326 326 326 326 326 326 326 326 327 328 328 326 325 325 326 327 327 327 327 327 326 326 326 326 325 325 325 326 326 325 324 324 324 324 324 323 322 323 324 325 325 324 325 325 325 326 326 326 326 326 326 326 326 326 326 326 326 326 326 326 326 325
324 325 325 325 326 326 326 326 326 326 325 324 324 325 326 324 323 325 326 326 327 326 326 325 326 326 326 326 326 327 327 328 328 327 327 327 326 326 327 327 327 327 327 326 326 326 326 325 325 326 326 325 324 324 323 322 322 321 319 320 322 324 324 324 324 325 325 325 325 325 325 325 325 325 325 325 326 326 326 326 325 325 326 325 325
325 325 325 326 327 327 326 326 325 325 324 323 324 325 325 323 323 324 325 326 326 326 325 324 325 326 326 326 327 327 327 328 327 327 327 327 327 326 326 327 326 326 326 326 326 326 326 325 325 326 325 324 324 323 321 320 320 318 317 319 321 323 324 324 324 325 325 324 324 324 323 323 323 323 324 324 324 325 325 325 325 325 326 325 325
326 325 325 326 326 326 326 325 324 323 322 322 323 323 323 322 322 323 324 324 325 325 325 324 324 326 326 326 326 327 327 327 326 326 326 326 326 325 324 326 326 326 326 326 326 326 326 325 325 325 325 325 323 320 318 318 318 318 319 320 321 321 322 323 324 324 324 323 321 320 320 321 321 321 321 321 322 323 323 324 324 325 325 325 325
325 325 325 325 325 325 326 326 325 324 322 323 324 323 322 322 323 323 323 323 323 323 324 324 325 326 326 325 325 326 326 325 325 325 325 325 325 324 324 325 325 325 326 326 326 326 325 325 324 325 324 322 319 317 317 318 318 319 319 319 319 318 319 320 321 321 321 320 319 319 318 318 318 318 319 319 319 320 321 322 323 324 324 324 324
324 325 325 325 325 325 325 326 326 325 324 323 324 323 323 323 323 322 322 322 323 322 323 325 326 326 326 325 324 325 325 324 324 325 325 326 326 325 325 325 325 326 325 325 325 325 325 324 324 324 322 318 316 317 317 317 317 317 317 316 316 315 315 316 316 317 319 319 319 319 318 317 317 318 318 318 318 318 318 318 320 321 323 323 323
323 323 324 324 325 324 325 326 326 326 325 325 324 324 324 323 323 323 322 322 322 322 323 325 326 326 326 326 324 325 325 324 324 325 325 326 326 326 325 325 325 324 323 323 323 323 323 323 323 322 318 315 315 316 315 315 315 315 314 314 313 312 312 312 312 313 315 316 316 317 318 318 318 318 318 317 315 313 313 312 313 315 318 321 321
321 320 318 319 322 323 324 325 326 325 326 325 325 325 325 324 324 323 323 322 323 323 323 324 326 326 326 326 325 325 325 325 324 324 325 326 326 326 325 324 323 321 319 318 318 318 319 320 320 317 314 314 315 315 314 314 314 313 312 311 310 309 308 308 308 308 309 309 310 311 313 315 315 314 313 311 309 308 307 306 306 308 310 313 314
320 318 314 313 317 320 321 323 325 325 326 325 325 325 325 325 325 324 323 323 324 323 323 324 325 326 327 326 326 326 326 325 325 324 324 325 325 325 324 322 320 318 316 315 315 316 316 316 316 315 314 314 314 313 313 312 311 310 309 307 306 305 304 304 304 304 304 304 305 305 306 307 307 306 306 305 305 304 304 304 304 304 304 305 306
320 318 315 313 315 317 318 320 323 323 324 325 325 325 325 325 325 324 324 324 324 324 323 324 325 326 327 326 326 326 326 325 325 325 324 324 324 325 323 321 319 317 315 314 314 314 315 314 314 314 314 313 312 311 310 308 308 306 305 304 304 304 304 304 303 303 303 303 304 304 304 304 304 304 304 304 304 304 304 304 304 304 304 304 304
320 319 317 315 315 316 317 318 320 320 321 323 324 324 325 326 325 325 324 325 325 324 324 324 324 326 326 326 326 326 326 325 325 325 324 324 324 324 323 320 319 317 314 312 311 311 312 312 313 312 310 309 308 307 306 305 305 305 305 305 305 304 304 304 304 304 304 304 304 304 304 304 304 304 304 304 305 305 305 305 304 304 304 304 304
322 320 318 316 315 315 317 319 319 319 320 321 322 323 325 326 326 326 325 324 325 325 325 324 324 325 325 325 326 326 326 325 325 325 324 324 324 323 322 320 319 317 314 310 308 307 308 308 309 308 306 305 304 304 304 304 305 305 305 305 305 305 305 305 306 306 306 306 306 306 306 306 306 306 307 307 307 307 307 306 306 306 306 306 305
321 320 319 317 316 315 316 318 319 320 321 320 320 321 323 325 326 326 325 323 324 324 324 325 325 325 325 325 325 326 326 325 325 325 325 324 323 323 321 320 319 316 313 311 309 307 306 306 306 305 304 304 304 305 304 305 305 304 305 305 306 307 308 308 307 307 307 307 307 307 307 307 308 307 307 307 307 307 307 306 306 306 306 306 306
318 317 316 315 315 313 314 318 320 321 321 321 319 319 321 324 325 324 324 323 323 323 323 324 325 325 326 325 325 326 325 325 325 325 325 324 323 323 321 320 319 316 314 311 310 308 306 306 306 305 305 305 305 305 305 304 305 306 307 308 308 308 308 306 305 304 303 304 304 304 304 304 304 304 304 303 303 303 303 303 303 303 303 303 303
319 318 314 310 310 311 313 317 319 320 320 320 319 317 320 323 322 321 322 322 321 321 321 323 324 324 325 325 325 326 325 324 325 325 325 324 323 323 321 320 319 317 315 312 310 308 307 306 306 306 305 305 306 306 306 306 307 308 308 308 308 307 305 303 302 301 301 301 301 302 301 301 301 301 301 301 301 301 301 301 301 301 301 301 301
320 319 315 310 308 310 313 316 319 319 318 318 317 316 318 321 321 320 321 321 321 320 320 321 323 324 324 324 325 325 325 324 325 325 324 324 323 322 321 320 319 317 315 313 311 309 307 306 306 306 306 307 308 309 308 308 308 308 308 308 307 305 304 303 302 301 301 301 301 301 301 301 301 301 301 301 300 300 301 301 300 301 301 301 301
320 320 316 311 309 310 312 315 317 318 318 318 317 314 316 319 320 321 321 321 321 321 320 321 323 323 323 323 324 324 324 324 324 324 324 323 323 322 321 320 317 316 314 313 311 309 307 306 306 308 309 309 310 309 309 308 308 308 308 307 307 305 305 305 304 303 303 303 302 301 301 301 301 301 301 300 300 300 300 300 300 300 300 300 300
320 318 316 312 309 311 313 314 316 317 318 318 316 315 316 318 319 320 321 321 321 320 321 321 322 323 323 323 323 324 324 324 324 324 323 323 322 322 321 318 315 314 311 310 309 308 307 306 307 309 310 310 310 309 309 308 308 308 308 308 307 307 307 306 306 306 305 304 303 303 303 302 301 301 301 301 301 301 301 301 300 300 300 300 300
320 318 314 309 307 311 314 316 317 318 319 317 314 315 318 318 319 320 320 321 321 321 322 321 322 322 322 322 323 324 324 324 325 323 322 322 321 321 321 317 314 313 310 308 308 308 308 307 308 310 310 310 310 309 309 308 308 308 308 308 308 308 308 307 307 307 307 306 306 306 305 304 303 302 302 302 301 301 301 301 301 300 300 299 299
319 317 312 307 306 308 311 314 316 320 320 316 312 314 318 319 319 321 321 322 322 322 321 321 321 321 321 322 323 324 325 324 324 323 321 321 321 321 320 316 313 311 309 308 309 309 308 308 308 310 310 310 310 309 309 308 308 308 308 308 308 308 308 308 308 308 308 308 307 307 307 307 305 304 303 303 302 301 301 301 301 300 299 299 299
316 314 309 306 306 307 308 308 313 319 320 315 311 314 318 320 321 322 322 322 323 321 320 319 319 319 320 322 323 324 324 324 323 322 321 321 321 320 318 316 313 311 310 310 310 310 309 308 308 309 309 309 309 309 309 309 309 308 308 308 308 308 308 309 309 309 309 309 308 308 308 308 307 306 305 304 303 301 301 301 301 300 299 299 299
312 309 306 305 305 306 305 304 308 315 317 312 310 314 318 320 321 322 322 322 322 319 318 317 317 317 318 320 322 323 324 324 323 322 321 321 320 318 316 314 313 312 311 311 310 310 310 309 309 309 309 309 309 309 309 309 309 309 309 309 308 308 308 309 309 309 309 309 309 309 309 309 308 307 306 305 303 301 301 301 300 300 299 299 298
308 306 305 305 305 305 305 304 305 309 311 308 308 313 317 318 320 321 321 322 320 317 315 315 315 315 316 319 321 322 323 323 323 322 321 320 318 316 314 313 313 312 312 312 311 310 310 310 310 309 308 309 309 309 309 310 309 309 309 309 309 309 309 309 309 309 309 309 309 309 309 309 309 308 307 306 303 301 300 300 300 300 299 299 298
306 305 305 305 305 305 305 305 305 306 307 307 308 312 315 316 317 318 319 321 320 316 314 315 315 314 315 318 321 322 322 322 321 320 320 319 318 317 316 315 314 314 313 313 312 311 310 310 310 310 309 309 309 309 309 310 310 309 309 309 309 309 309 309 309 309 309 309 309 309 309 309 309 308 308 306 303 301 300 300 300 299 299 298 298
306 306 306 307 307 307 306 305 304 305 305 307 309 311 314 315 315 315 315 317 319 317 314 314 314 314 314 316 319 321 320 319 319 318 318 317 317 317 317 317 317 316 315 314 313 312 311 310 310 310 309 309 309 308 309 309 309 309 310 309 309 309 309 309 309 309 309 309 309 309 309 309 309 309 308 305 302 301 300 300 300 299 299 298 298
308 308 308 309 309 310 310 308 306 304 305 307 309 310 312 313 313 313 311 313 316 316 315 314 314 313 314 314 316 317 317 316 316 315 315 315 315 315 315 316 316 316 316 316 315 314 313 311 310 311 310 310 310 309 309 309 308 309 309 310 310 310 310 309 309 309 309 309 309 309 309 309 309 309 307 304 301 300 300 300 299 299 299 298 298
310 310 310 311 311 312 313 312 310 309 308 308 308 308 309 310 309 309 308 309 312 315 315 314 313 312 313 314 314 314 315 315 314 314 314 314 314 314 314 314 314 314 315 316 316 316 315 312 311 311 311 310 310 310 310 309 309 309 309 309 309 309 310 310 309 309 309 309 309 309 309 309 309 308 306 303 301 300 300 300 299 298 298 298 298
312 313 313 313 312 312 313 313 313 313 312 311 310 309 308 308 309 309 309 308 309 312 313 313 312 311 312 313 314 314 314 314 314 314 314 314 313 313 314 313 313 314 314 315 316 316 315 312 311 313 312 311 311 310 310 310 310 310 310 309 309 309 309 309 310 309 309 309 309 309 309 309 308 308 306 303 301 300 300 299 298 298 298 297 297
313 314 315 315 314 313 313 314 314 314 314 314 313 312 309 309 309 310 311 309 308 310 312 312 313 313 313 313 314 314 314 314 314 314 314 314 314 314 314 314 314 314 314 314 314 314 314 312 312 314 313 312 311 311 311 312 311 311 311 310 310 309 309 309 309 310 309 309 309 309 309 309 309 308 306 303 300 300 299 298 298 297 297 297 297
314 314 315 316 314 313 313 314 314 314 314 314 314 314 313 311 309 309 311 311 311 312 314 315 315 315 315 314 314 314 314 314 314 314 314 314 315 314 314 314 314 314 315 314 314 314 314 313 313 314 314 313 313 312 312 312 312 311 311 311 310 310 309 309 309 309 309 309 309 309 309 309 309 309 306 302 300 299 299 298 298 297 297 297 296
315 315 315 316 315 314 313 313 314 314 314 314 314 314 314 313 312 311 311 311 312 312 313 314 314 315 315 315 315 315 315 314 314 314 314 314 315 314 314 314 314 315 315 315 315 315 314 314 314 314 314 314 314 313 313 312 312 312 311 311 311 310 310 310 310 310 309 309 309 309 309 309 309 308 304 301 300 299 298 298 297 297 297 296 296
316 317 317 317 317 315 314 314 314 314 315 315 315 315 315 315 314 313 312 312 312 311 311 311 312 312 313 314 315 315 314 314 314 314 314 313 314 314 314 314 314 314 314 315 315 314 314 314 314 315 315 315 314 314 313 313 313 312 312 312 311 311 310 310 309 310 310 310 309 310 310 310 310 307 303 300 299 298 298 297 297 296 296 296 296
317 318 318 318 318 317 317 316 315 316 316 316 316 316 316 316 316 315 314 314 313 313 313 312 312 312 312 312 313 313 313 313 313 313 313 312 312 312 313 313 313 312 313 313 313 314 314 314 314 314 315 314 314 314 314 314 313 313 313 312 312 312 311 310 310 310 310 310 309 310 310 310 308 304 301 299 299 298 297 297 296 296 296 296 296
316 317 318 318 318 318 318 317 317 317 316 316 316 316 316 316 316 316 316 315 315 314 314 314 314 314 313 313 312 312 312 312 312 312 312 312 312 311 312 312 311 312 312 312 312 313 313 314 314 314 315 315 315 315 314 314 313 313 313 313 313 312 311 310 310 310 310 310 310 310 310 309 306 302 300 299 298 297 297 296 296 296 296 296 296
317 318 318 318 318 318 318 318 318 318 317 317 317 317 317 316 316 317 317 316 316 315 315 315 314 314 314 314 314 314 314 314 313 313 313 313 313 313 313 313 313 313 313 313 313 313 313 314 314 315 315 315 315 315 315 314 314 313 313 312 312 311 310 310 310 310 310 310 310 310 309 306 303 300 299 298 297 297 296 296 296 296 296 296 296
319 319 319 319 318 318 319 319 319 319 319 319 319 319 319 318 318 318 318 318 317 317 317 316 315 315 315 314 314 315 315 315 314 315 315 315 315 315 315 315 315 315 315 314 314 315 314 315 314 315 315 315 315 315 315 315 314 314 313 312 311 311 310 310 309 310 310 310 310 309 306 303 301 299 298 298 297 296 296 296 296 296 296 296 296
319 319 318 318 318 318 319 320 320 320 320 320 320 320 320 320 319 319 319 319 318 318 318 317 317 317 317 316 316 316 316 315 315 315 315 315 315 315 315 315 316 316 316 316 316 316 316 316 316 316 315 315 315 315 315 315 315 314 314 313 312 311 311 310 310 310 310 310 309 306 302 300 299 299 298 297 296 296 296 296 296 295 295 295 295
318 318 318 318 318 318 319 319 319 319 319 319 319 319 319 319 320 320 319 319 319 319 319 318 318 318 318 318 318 318 317 317 317 316 316 316 316 316 316 316 316 316 317 317 317 316 316 316 316 316 315 315 315 314 314 314 314 314 313 312 312 312 311 310 311 311 310 308 305 302 300 299 299 298 297 296 296 296 296 295 295 295 295 295 295
315 316 316 316 316 316 317 317 317 317 316 316 316 316 317 318 318 318 319 319 319 319 319 318 318 318 318 318 318 318 318 318 318 318 318 317 317 317 317 317 317 317 317 317 317 316 316 316 316 316 315 314 313 313 313 313 313 313 312 311 311 311 311 312 312 310 307 305 303 300 299 298 297 296 296 296 295 296 296 295 295 295 295 295 295
Wind_Speed
11 11 11 10 9 8 7 7 6 6 5 5 5 5 5 6 8 8 9 10 11 11 12 12 13 13 11 9 7 5 3 2 2 3 3 3 4 5 5 5 4 4 4 2 3 3 2 3 4 4 3 2 2 2 2 3 3 4 4 4 4 5 5 5 5 5 6 6 6 6 6 6 7 7 8 8 9 10 10 10 10 10 10 11 11
11 11 11 9 8 8 7 7 7 6 6 5 5 5 5 6 7 8 8 9 9 8 8 9 11 11 10 9 6 4 3 1 1 2 2 2 3 4 4 3 3 3 3 3 2 3 2 2 3 3 2 2 1 2 2 2 3 4 4 5 5 5 5 5 5 5 5 5 5 5 5 5 6 6 7 8 8 9 9 9 9 9 10 10 10
10 10 9 8 7 7 7 6 6 6 6 6 5 5 6 7 7 8 8 8 8 8 8 8 8 9 9 8 7 5 4 2 2 2 2 1 1 2 2 2 2 2 3 3 1 2 2 2 2 2 1 1 2 2 2 3 5 5 6 6 6 5 5 5 5 5 5 5 5 5 5 5 5 5 6 6 7 8 8 8 9 9 9 9 10
10 9 8 7 6 6 6 7 6 6 6 6 5 4 5 7 8 8 8 9 8 7 8 7 6 5 6 6 5 5 4 5 5 5 5 4 2 1 1 2 2 3 2 1 1 2 3 3 3 3 3 3 3 4 5 7 8 9 9 9 8 7 6 6 5 5 5 4 4 4 5 5 5 5 5 5 6 6 7 7 8 8 9 9 10
8 8 7 6 6 6 6 7 6 6 5 5 5 4 4 5 6 8 8 9 9 8 7 6 5 5 4 3 5 6 6 6 7 7 7 6 5 3 2 1 2 2 2 2 3 4 5 6 4 4 5 7 8 10 11 12 13 13 12 12 11 10 10 9 8 8 6 5 4 4 4 4 4 5 5 5 5 6 6 6 7 8 8 9 9
7 7 7 7 7 7 6 6 5 5 4 4 5 4 4 5 5 6 7 9 9 8 7 6 5 5 4 2 3 5 6 7 8 8 7 6 6 5 3 2 2 2 3 4 5 5 6 8 5 5 8 11 12 13 14 13 13 12 12 13 12 12 12 12 11 11 10 9 7 6 5 5 5 5 6 6 6 6 6 6 7 7 8 8 9
6 6 8 7 7 6 6 6 5 4 4 4 5 5 5 5 5 6 7 8 8 7 6 5 5 4 3 2 2 4 6 8 8 8 8 7 7 6 4 3 3 3 4 5 5 6 7 8 7 7 8 10 10 10 11 9 8 8 8 9 9 10 10 10 11 11 11 11 10 9 9 8 7 7 6 6 7 7 6 6 7 7 7 8 8
5 6 7 7 6 6 6 7 6 5 4 4 5 6 6 6 6 7 7 7 7 6 5 5 4 4 4 2 2 4 6 7 7 8 9 8 7 7 6 5 4 4 4 5 6 7 8 8 9 8 8 9 8 6 7 6 4 4 4 5 5 6 7 7 8 9 10 10 10 10 9 9 8 8 7 6 7 7 7 7 7 7 8 7 7
6 6 6 6 7 6 6 7 7 6 5 5 5 6 7 7 7 7 7 6 6 5 5 4 4 4 4 3 2 4 5 4 6 9 9 9 8 7 7 6 6 5 5 6 6 7 8 8 8 8 9 9 6 4 4 3 2 2 3 3 3 3 4 4 5 7 7 7 7 7 7 8 8 8 7 7 7 7 7 8 8 8 8 8 7
7 7 6 7 7 6 7 6 6 6 6 6 5 6 8 8 7 6 7 7 5 5 5 4 4 4 4 3 3 4 4 3 6 8 9 9 9 8 7 7 7 7 6 6 6 7 7 7 7 7 8 7 4 2 2 2 2 2 2 2 2 2 2 2 5 6 6 5 6 6 6 6 7 7 6 6 6 6 7 8 9 8 8 8 7
6 6 6 6 7 6 7 7 6 6 6 6 6 7 9 8 8 7 7 7 6 5 5 5 4 4 4 5 5 4 3 3 6 7 7 9 10 10 9 7 7 7 7 7 7 6 5 5 5 5 5 5 3 2 2 2 2 2 2 2 2 2 2 2 3 4 4 4 6 6 6 5 6 6 4 3 3 4 6 6 7 8 8 8 8
6 6 5 4 4 4 6 7 7 7 7 7 6 8 9 8 8 8 7 8 8 7 5 5 5 5 6 6 5 5 4 3 5 6 6 8 10 10 9 8 7 7 7 6 6 6 5 3 3 3 3 3 3 1 2 2 2 3 3 2 2 3 2 2 3 4 4 4 5 6 6 6 6 7 6 5 5 4 6 6 6 7 8 8 8
5 5 4 4 4 4 6 8 8 8 8 8 8 9 10 10 9 9 8 8 8 8 7 6 5 6 6 7 6 5 6 4 6 6 5 7 10 10 9 8 7 7 6 6 6 6 4 3 2 2 2 1 1 2 2 3 4 4 4 4 3 3 2 3 3 4 4 4 4 5 5 5 6 6 7 7 6 6 7 8 7 7 8 8 8
6 5 5 4 5 6 7 7 8 8 9 9 9 10 10 10 10 10 9 8 7 7 8 7 6 6 6 7 7 6 7 6 6 5 6 7 9 9 8 8 8 8 6 6 6 5 4 2 1 1 1 1 2 3 4 5 6 6 5 5 5 4 4 3 3 3 3 3 3 3 4 4 5 5 6 6 6 7 8 8 9 8 8 8 7
7 6 6 6 6 7 7 7 8 8 8 9 10 10 11 11 10 10 10 9 9 8 8 7 7 6 6 7 8 8 8 7 5 5 6 5 6 6 6 7 8 7 7 6 6 5 3 1 1 1 1 2 3 4 5 6 6 6 5 6 6 6 6 6 5 5 5 5 5 5 5 5 6 5 5 5 5 6 7 8 8 7 7 8 7
7 7 7 6 6 7 7 8 8 8 8 9 9 10 10 11 10 10 10 10 10 10 9 8 8 8 8 7 8 10 9 8 8 7 5 4 3 4 5 6 7 6 7 7 5 4 2 1 2 2 2 3 5 5 6 7 7 7 7 7 8 8 8 8 8 8 7 8 9 9 9 8 8 8 8 7 6 5 5 5 6 6 6 7 7
7 6 6 6 6 6 7 8 8 8 8 8 9 10 10 10 10 10 10 10 9 9 10 10 9 9 9 6 6 8 10 11 10 7 4 3 3 3 4 5 6 6 6 5 4 3 3 4 5 4 3 4 6 7 8 9 9 9 9 9 8 8 9 8 8 8 8 9 9 10 10 10 10 10 10 10 10 9 7 6 6 5 5 5 6
6 6 6 6 5 5 7 8 8 8 8 9 10 10 10 10 10 10 10 9 9 9 9 10 11 11 10 7 4 5 9 12 11 8 6 5 4 5 6 6 6 6 6 6 6 6 7 6 6 4 4 6 7 8 10 10 10 9 9 9 9 9 9 8 8 8 8 8 8 8 8 8 9 9 10 10 10 10 10 9 9 8 7 6 6
6 5 5 5 5 4 5 7 8 8 9 9 9 9 9 10 10 10 9 10 9 9 8 9 11 11 11 10 6 3 4 7 9 10 11 10 8 8 9 9 10 10 10 9 8 7 7 6 6 6 6 7 8 9 9 10 9 9 9 8 8 8 8 7 7 7 7 6 7 6 6 6 7 8 8 8 9 9 9 9 9 9 8 7 7
6 5 4 5 5 4 4 6 7 7 7 7 8 9 9 10 10 10 10 10 10 9 9 9 10 10 11 12 10 6 3 3 5 7 10 15 14 11 12 13 13 13 11 10 9 8 7 7 7 7 7 7 8 9 9 9 8 7 7 7 7 7 6 6 6 5 5 5 5 5 5 5 6 6 7 7 7 8 8 9 9 8 8 7 7
5 4 3 4 5 5 4 5 6 6 6 6 6 7 8 9 10 10 10 11 11 10 10 10 9 9 10 11 11 9 5 4 5 7 8 13 15 15 17 17 15 13 12 11 11 10 9 9 8 8 8 7 8 8 8 7 7 6 6 6 5 5 5 5 5 5 5 5 5 5 6 6 6 7 7 7 8 8 8 9 9 9 9 9 9
4 4 4 4 5 6 5 5 5 5 4 4 4 4 5 6 8 9 9 10 11 10 10 10 10 9 10 11 11 11 7 6 8 9 9 10 13 17 19 18 16 15 13 12 11 11 10 9 8 8 7 7 6 6 6 6 6 5 5 5 5 5 5 6 6 6 6 6 6 6 6 6 7 7 7 8 8 8 9 9 9 9 9 10 10
3 4 4 4 4 6 6 6 5 4 4 4 3 3 3 5 6 7 7 8 9 9 10 10 10 11 11 11 10 10 8 6 7 10 12 11 14 20 20 17 16 15 14 12 10 9 8 7 7 6 5 5 5 5 6 6 6 6 6 6 6 6 7 7 7 7 6 6 6 6 6 6 6 7 7 7 8 8 8 9 9 9 9 9 10
3 3 3 3 3 4 6 7 6 4 3 4 4 4 4 5 5 5 6 7 7 8 9 9 10 10 10 11 10 9 8 6 6 9 11 10 13 21 22 18 16 14 13 12 11 9 8 7 7 5 5 5 5 6 6 6 6 7 8 8 8 7 7 7 7 6 6 6 6 6 6 6 6 7 7 7 7 8 8 8 9 9 9 9 9
3 3 2 2 1 2 4 7 6 3 3 3 3 4 5 5 5 6 6 6 7 7 8 8 9 9 9 10 10 9 8 7 7 8 10 10 12 19 22 17 14 14 14 12 10 9 8 7 8 8 7 7 7 7 7 7 8 8 8 8 8 7 7 6 6 6 6 6 6 6 6 6 7 7 7 8 8 8 8 8 9 9 9 9 9
4 4 4 4 2 0 2 5 5 4 3 3 3 3 4 5 6 6 7 7 8 7 7 8 9 9 9 9 9 9 9 7 7 9 10 11 12 17 20 17 14 13 13 12 10 8 8 8 9 10 10 9 10 9 9 8 8 8 8 7 7 7 7 7 7 7 7 7 7 7 7 7 7 7 8 8 9 9 8 9 9 9 10 10 10
5 6 6 5 2 1 2 4 4 4 4 3 3 3 4 6 6 6 7 8 8 7 8 9 9 9 9 9 10 10 10 8 7 8 10 11 11 15 17 16 15 15 13 12 10 7 7 9 11 11 11 11 11 10 9 8 7 7 7 7 7 7 8 8 8 9 9 9 9 9 9 8 7 8 9 9 10 10 10 10 10 10 10 10 11
5 6 7 6 3 1 2 3 3 2 2 2 2 3 5 6 5 5 6 7 7 7 8 9 9 9 9 9 10 11 10 9 7 8 10 11 10 13 14 10 10 16 16 13 11 9 8 10 12 12 12 11 10 9 8 8 7 7 7 6 7 8 8 9 9 10 11 11 11 11 11 10 9 9 9 10 11 12 12 13 13 13 12 12 12
5 6 7 7 3 1 2 3 3 2 2 2 2 3 5 7 7 6 5 5 6 6 7 8 9 9 8 8 9 11 10 10 9 8 10 11 10 12 12 6 4 11 19 17 13 11 10 11 11 11 11 10 9 9 8 8 8 7 7 6 7 7 7 7 8 9 10 11 12 12 13 13 12 11 11 12 13 13 14 14 15 15 15 15 14
4 5 6 6 3 0 2 2 2 2 2 1 1 3 5 8 7 6 5 5 5 6 6 7 7 8 8 8 9 11 11 11 10 9 9 10 11 11 10 5 3 6 13 17 15 12 11 11 11 10 9 9 9 9 9 9 9 8 7 6 5 5 5 5 6 7 9 10 11 12 14 15 15 15 15 16 16 16 16 17 17 18 17 17 16
3 4 5 5 2 1 3 3 2 2 2 1 1 3 5 6 6 5 5 5 5 6 5 5 5 5 6 8 9 11 12 11 11 10 10 11 11 11 10 6 3 4 8 14 15 13 12 11 10 9 9 8 8 9 9 9 9 8 7 5 5 5 4 3 4 5 7 9 11 12 14 15 16 18 19 19 19 19 19 20 20 20 19 18 16
2 4 4 4 1 2 4 4 3 3 3 2 0 3 4 4 4 4 4 5 5 5 4 3 3 3 3 5 8 11 12 12 11 11 12 12 10 10 10 8 5 6 9 11 11 11 12 10 9 9 9 8 8 8 9 9 9 9 8 6 5 5 4 2 2 4 6 8 10 12 14 15 17 19 21 21 21 21 21 22 22 22 21 19 17
2 3 3 2 1 3 4 4 3 4 4 2 0 3 3 3 3 4 4 5 4 4 3 2 2 2 1 2 7 10 11 12 12 12 12 12 11 11 11 9 7 7 8 7 7 8 11 11 11 11 9 8 8 8 9 9 8 9 9 7 6 5 4 1 1 3 5 7 9 11 14 16 18 20 22 22 22 22 22 22 23 22 21 20 18
2 3 2 2 3 4 4 3 3 4 4 2 2 5 4 2 2 3 4 4 4 2 2 2 0 1 2 1 5 8 11 11 12 12 12 12 11 11 10 9 8 8 8 7 6 6 7 9 10 11 10 9 8 9 9 8 8 8 9 8 7 7 5 4 3 4 5 7 8 11 13 16 19 21 22 23 22 22 22 22 23 22 22 20 19
2 2 2 3 3 4 4 4 4 4 5 3 4 7 6 4 3 2 3 4 3 1 1 2 1 1 2 1 3 7 11 12 12 11 12 12 11 10 9 8 9 9 10 10 9 8 6 6 8 10 10 10 10 10 10 10 9 9 10 9 9 8 7 6 6 7 7 8 9 11 14 17 19 21 22 23 23 22 22 22 22 22 21 20 19
1 1 2 3 4 4 4 4 4 4 4 3 4 8 8 6 4 3 3 3 3 2 1 2 1 1 1 2 4 8 11 13 12 11 11 11 10 9 9 10 10 11 12 13 13 12 10 8 7 8 10 11 12 12 12 12 11 11 11 10 10 10 9 9 9 9 9 9 11 13 15 17 19 21 23 24 24 23 22 22 22 21 21 20 19
0 0 2 3 3 3 2 2 2 3 3 2 3 6 8 8 6 5 4 4 4 4 3 3 2 1 2 3 5 9 11 11 11 10 10 9 9 10 11 12 13 13 14 15 15 15 14 12 9 9 11 13 14 15 15 14 13 13 13 13 12 12 11 11 11 11 11 11 12 13 15 18 20 22 23 24 23 23 22 22 21 21 20 20 19
2 3 5 7 7 7 7 6 3 1 1 2 3 4 6 7 7 7 6 6 7 7 7 6 5 4 3 3 5 7 9 9 9 9 8 8 8 9 10 11 13 15 16 17 17 17 17 16 13 12 13 14 16 17 17 17 16 15 14 14 13 13 12 12 13 13 12 12 13 14 16 18 20 22 23 23 23 22 22 21 21 21 21 21 21
5 4 6 6 6 7 8 8 7 5 4 2 2 3 5 5 6 6 6 7 9 9 9 9 8 7 7 7 7 7 7 7 7 8 7 8 8 10 10 11 12 14 16 18 19 19 19 18 16 14 14 15 17 18 18 18 18 18 17 17 16 15 14 14 14 14 14 13 14 15 17 19 21 22 23 23 22 22 21 21 21 21 21 21 22
7 6 5 5 4 5 5 5 5 5 5 4 3 0 3 4 4 4 4 6 9 10 9 8 7 7 9 11 11 10 9 9 9 9 9 9 10 10 10 10 10 11 13 15 17 18 19 19 18 16 15 16 17 18 18 19 19 19 19 18 18 17 16 16 16 16 15 15 15 16 18 20 21 22 23 24 23 22 21 21 21 21 22 22 23
8 7 5 4 4 3 3 2 2 3 4 4 5 4 2 3 4 4 4 5 7 8 7 7 7 7 9 11 12 12 12 12 12 12 10 10 10 9 9 9 9 9 10 12 14 15 17 19 20 19 18 18 19 20 20 20 19 19 18 18 19 19 18 18 18 17 16 15 16 17 18 19 20 22 23 24 23 22 21 21 21 22 23 23 24
8 7 6 5 5 4 3 1 1 2 2 3 4 5 5 4 3 3 5 5 6 7 7 7 8 9 9 10 11 12 12 12 12 12 12 11 11 11 11 11 10 10 11 12 13 15 17 19 20 21 20 20 20 21 21 21 20 19 20 20 20 21 21 20 19 19 17 17 17 18 19 20 21 22 23 23 23 22 22 22 23 23 24 24 25
10 9 8 7 6 5 4 3 2 2 2 2 3 4 5 5 4 3 3 5 6 7 7 7 8 8 9 10 10 12 13 13 13 13 13 13 13 13 14 14 13 14 14 14 15 16 18 19 20 20 21 21 21 21 22 22 21 22 22 22 22 23 23 22 21 20 19 18 18 19 20 21 22 23 23 23 22 22 23 23 24 24 25 25 25
11 10 9 8 7 7 6 5 5 4 4 4 3 3 4 5 5 5 5 5 6 6 7 8 8 9 10 11 12 13 14 15 15 16 16 16 16 17 17 17 17 17 17 18 18 19 20 20 20 21 21 21 21 22 23 23 22 23 23 24 24 24 24 24 23 21 20 19 19 19 20 22 23 23 23 22 22 22 23 23 24 24 24 24 24
14 12 11 10 9 9 8 7 7 7 7 6 6 6 6 6 6 7 8 8 8 8 8 8 9 10 11 12 13 14 15 16 17 18 18 19 19 19 20 20 20 20 20 20 20 21 21 21 22 22 22 21 22 22 23 24 24 25 26 26 26 26 25 25 24 22 21 20 19 19 20 22 22 22 22 22 22 22 22 23 23 24 24 23 23
15 14 13 13 12 12 11 9 8 9 9 9 9 9 9 9 8 9 10 11 12 12 11 11 11 11 11 11 12 13 14 15 16 17 18 19 19 20 20 20 20 21 21 21 21 22 23 24 25 26 25 24 24 23 23 24 26 27 28 28 27 27 26 26 24 23 22 21 20 20 21 22 22 21 21 21 21 21 22 23 23 23 23 23 23
15 15 14 14 14 13 13 11 10 10 11 11 12 12 12 12 12 12 12 13 14 14 15 15 15 15 15 15 15 15 15 15 16 17 18 19 20 20 21 21 21 21 22 22 22 23 24 25 27 28 28 27 27 26 25 25 26 26 26 26 25 26 26 25 24 23 22 21 22 22 21 21 21 20 19 19 20 20 21 22 22 22 22 22 23
13 13 14 13 13 12 12 12 12 12 12 12 13 14 15 15 15 16 16 16 16 17 17 17 18 19 19 20 20 20 20 20 20 20 21 22 23 23 23 23 23 23 23 24 24 25 26 27 28 29 30 30 29 28 28 27 26 27 27 26 26 27 26 25 23 22 21 22 23 22 20 20 20 19 18 19 19 20 21 21 20 20 21 22 23
8 10 11 11 11 11 11 11 11 12 14 15 15 17 17 18 19 19 20 20 21 21 21 21 21 22 21 22 22 23 23 23 24 25 26 28 28 28 28 27 27 27 26 26 27 28 29 30 31 32 31 31 30 30 29 29 29 29 30 29 29 29 28 26 24 23 23 23 22 21 19 19 18 18 18 18 19 19 19 19 18 19 21 22 22
6 6 7 8 9 10 10 11 11 12 13 14 16 17 19 19 20 21 22 23 24 24 25 26 26 26 26 26 26 26 26 25 25 26 28 29 30 30 30 31 31 31 29 29 30 30 31 32 35 36 33 30 29 28 28 28 30 31 31 28 27 29 28 27 25 23 22 22 21 19 18 17 17 18 18 18 19 18 18 17 18 20 22 22 22
6 7 7 8 9 10 11 12 13 13 14 14 15 16 18 19 20 21 22 23 23 24 25 27 27 28 28 28 28 28 29 28 27 27 28 28 29 29 30 31 31 30 29 29 31 31 32 33 36 37 34 30 30 29 27 29 30 31 29 27 26 29 30 29 26 22 20 20 19 17 16 16 17 17 18 18 18 17 17 17 18 20 21 22 22
Wind_Direction
162 157 154 157 158 159 160 161 161 158 165 164 163 168 166 166 166 171 179 186 194 200 206 204 192 192 201 199 186 175 161 138 127 111 98 91 82 74 70 59 50 53 72 76 356 18 98 173 183 187 182 161 117 86 64 54 46 41 39 36 38 37 37 39 40 41 44 47 49 51 52 54 54 54 53 52 53 56 57 55 54 55 54 55 55
163 160 158 159 158 159 163 168 172 175 178 178 178 178 177 179 174 172 179 184 188 193 199 204 197 194 202 208 209 208 203 185 154 133 112 92 69 69 78 69 60 60 80 100 43 38 72 146 166 184 180 160 134 97 65 45 33 27 25 25 27 29 30 30 32 36 41 45 48 50 49 50 50 49 49 48 50 52 56 56 53 54 53 52 51
164 161 155 153 154 157 163 168 174 180 183 184 184 185 184 187 188 184 185 186 186 185 185 191 192 191 199 211 224 229 226 215 196 176 155 129 75 59 78 88 74 67 90 127 121 68 74 84 116 133 118 134 139 97 57 40 33 32 32 32 35 35 36 34 31 32 36 40 42 45 45 46 44 44 44 44 46 47 50 52 51 51 50 50 48
163 163 158 151 150 154 162 169 173 178 182 182 179 181 182 186 194 195 197 196 192 185 184 181 176 175 182 200 220 225 221 210 203 194 180 166 147 117 109 103 81 84 98 142 146 100 102 97 85 77 66 74 98 83 70 65 59 58 57 54 54 54 54 51 48 43 38 38 40 44 47 48 48 47 47 47 50 51 52 51 50 50 47 47 47
165 169 167 159 153 157 163 174 182 185 189 190 185 183 183 189 197 201 206 202 195 189 187 182 168 157 160 184 208 216 223 220 213 201 185 169 160 163 150 106 72 91 101 103 101 94 111 118 93 60 70 83 94 90 85 81 75 72 69 65 64 63 64 61 58 55 51 48 46 49 52 56 57 56 56 57 62 61 59 55 51 48 46 44 44
172 176 175 171 170 169 171 179 187 193 203 208 204 202 197 198 199 206 209 196 190 189 189 187 176 163 159 183 217 227 226 212 202 192 179 167 161 165 157 133 114 98 96 102 99 90 111 128 115 84 88 92 96 97 92 84 77 72 66 64 62 61 61 60 58 55 52 53 51 50 49 52 56 59 62 61 64 63 57 54 51 48 46 44 43
182 188 186 183 182 181 181 186 193 200 208 209 210 213 205 196 192 198 203 193 188 189 191 193 194 192 188 213 247 226 206 198 195 187 179 175 166 165 163 148 141 109 99 108 101 91 107 129 125 110 104 97 94 93 87 79 67 59 55 50 49 51 51 49 50 49 46 45 46 47 45 44 47 52 58 60 61 60 55 49 46 45 44 44 42
197 202 200 198 200 201 198 196 201 210 210 205 209 209 201 193 188 189 193 196 196 196 199 199 197 198 195 215 232 193 188 197 203 194 184 180 170 168 170 156 150 135 115 116 109 99 106 124 128 124 119 106 98 87 80 78 56 40 35 20 18 31 35 31 35 39 38 35 39 43 43 42 41 39 42 50 56 55 53 48 42 40 39 40 38
204 212 210 213 219 217 217 209 205 215 215 209 210 202 193 189 188 189 185 185 196 201 204 201 188 183 191 200 189 178 183 200 209 200 187 178 174 174 172 159 154 151 134 123 114 105 106 116 120 120 117 108 105 101 85 75 40 24 19 3 344 351 9 356 349 8 17 18 24 32 37 38 38 38 36 41 51 53 49 44 38 36 35 34 34
213 220 214 222 229 223 227 223 208 217 216 208 214 200 190 186 184 188 183 172 177 189 192 197 188 181 187 176 170 175 168 187 209 200 187 181 181 178 169 159 155 155 149 133 118 110 107 110 108 106 109 105 102 94 70 53 31 23 11 0 342 326 335 312 311 330 345 349 351 357 14 22 23 30 36 41 50 47 35 30 26 21 22 23 25
217 219 217 228 239 232 225 214 199 209 213 211 216 201 190 188 183 181 182 174 170 173 177 189 183 172 172 162 167 168 149 181 201 190 183 182 179 173 164 159 157 158 159 146 133 126 118 112 105 95 95 97 96 81 65 55 30 19 9 353 353 337 308 295 305 316 323 321 316 320 335 345 345 349 2 12 20 22 11 7 8 5 6 10 12
212 218 228 237 244 228 208 200 196 202 211 213 209 198 191 188 184 179 181 184 177 168 169 184 182 172 168 163 168 158 139 182 195 176 174 174 170 167 164 163 162 165 169 160 148 144 140 126 111 99 90 91 90 67 47 22 359 357 353 348 351 342 326 318 317 318 318 307 296 302 315 320 320 321 326 326 323 330 333 334 346 353 354 358 1
204 215 228 230 219 196 188 195 199 200 206 207 199 197 192 185 183 178 178 185 184 174 169 178 189 185 174 164 174 163 143 179 196 172 170 178 176 171 169 171 173 175 177 169 161 159 156 144 135 136 109 77 29 4 12 20 24 27 20 17 9 354 344 330 321 320 319 311 304 303 307 306 309 312 315 318 315 308 305 309 319 330 339 347 353
194 200 204 204 189 175 177 186 195 200 202 200 195 198 196 190 186 182 178 176 181 185 179 178 184 193 184 164 167 156 146 182 197 167 167 181 182 176 174 179 182 183 183 177 176 174 169 165 177 169 123 48 25 29 32 35 43 48 44 43 41 34 32 22 7 354 339 334 330 326 327 325 323 320 317 313 305 297 294 298 303 306 318 328 335
187 188 189 186 178 171 174 180 188 197 200 197 195 197 198 195 189 187 186 179 180 191 194 191 182 182 185 171 167 156 149 178 188 164 163 165 171 171 171 187 193 192 191 189 189 191 189 208 250 152 117 73 50 41 39 45 50 55 58 58 58 56 53 51 55 59 53 49 43 33 27 17 7 1 355 342 320 303 300 303 304 302 310 313 314
177 176 176 177 180 180 180 183 187 192 196 196 194 195 195 195 193 192 195 192 190 194 198 202 195 187 190 181 175 166 160 175 176 165 154 121 127 144 149 186 203 198 196 196 195 201 202 173 151 133 104 67 52 48 54 64 66 65 67 68 64 59 57 57 61 65 60 51 47 45 41 37 35 33 28 22 14 355 335 322 316 313 320 318 311
169 170 172 174 181 186 185 186 191 194 196 193 189 190 192 195 196 192 194 199 201 202 201 202 199 196 199 194 180 177 180 185 177 160 150 121 97 110 134 173 190 186 185 186 177 162 140 125 129 124 90 66 64 71 75 74 70 66 64 65 61 56 56 58 57 57 52 45 45 46 43 41 43 42 41 40 38 36 30 20 6 353 351 341 327
172 174 173 171 174 181 185 185 189 192 194 194 190 190 195 198 198 193 193 197 202 206 202 199 198 196 201 206 198 188 191 190 177 152 139 124 106 121 136 148 150 142 140 139 137 135 130 123 122 113 90 80 79 81 80 75 69 64 61 59 55 53 54 53 49 48 48 46 45 46 44 42 41 40 40 41 41 42 42 40 37 33 32 23 1
172 178 178 176 174 176 183 184 187 191 196 201 198 195 197 198 198 197 198 202 205 205 197 195 200 198 198 203 204 192 191 196 186 163 143 130 124 132 135 134 129 121 123 128 130 130 129 125 118 108 97 92 89 85 81 77 70 62 56 51 45 43 45 44 43 45 46 47 45 46 47 44 39 37 36 36 34 34 35 36 38 39 40 38 22
160 174 189 193 188 183 186 185 189 195 199 205 205 202 200 199 200 202 205 206 206 204 199 196 203 207 203 204 210 216 225 221 208 195 160 140 135 137 135 135 134 127 122 121 118 118 123 125 118 110 106 101 96 90 85 79 71 59 49 42 38 36 35 34 34 37 38 37 38 39 39 37 33 31 30 29 25 24 24 24 25 28 31 29 21
138 141 163 187 192 193 193 188 189 193 198 207 208 206 205 204 204 208 211 207 203 203 204 200 201 214 217 214 218 222 224 206 199 214 187 154 146 146 142 140 138 127 119 114 111 111 114 118 118 114 111 106 100 95 89 81 69 58 48 40 39 36 35 37 35 34 32 30 32 33 33 32 31 29 28 27 25 23 22 21 20 19 18 15 14
109 107 124 163 191 200 200 195 193 192 194 200 203 202 204 208 209 211 214 211 209 210 210 204 198 205 218 222 222 218 214 202 196 200 197 178 162 154 147 145 140 127 119 116 113 114 114 115 116 112 108 102 99 95 90 87 78 70 67 62 60 57 55 54 53 50 46 40 40 40 38 35 34 33 31 29 26 24 22 22 21 19 16 13 11
92 97 116 143 180 201 207 205 201 196 192 193 199 207 208 209 208 209 213 217 220 220 218 213 206 204 209 217 222 220 218 220 214 201 196 191 170 155 151 149 142 132 125 119 113 118 121 123 123 115 108 98 94 95 92 92 91 91 92 89 85 80 74 69 65 62 57 50 45 42 40 35 33 31 29 27 23 20 18 16 15 14 14 12 10
92 84 94 118 153 185 203 209 209 205 198 198 207 217 219 215 212 214 216 219 221 223 221 218 217 216 210 209 216 223 226 234 236 215 203 203 178 158 154 155 149 141 134 126 120 121 122 127 132 126 116 107 101 100 97 97 102 105 105 104 101 94 86 77 68 60 53 45 37 31 28 22 19 17 15 14 10 7 5 3 2 2 1 1 2
81 63 35 27 71 163 187 197 200 201 201 210 224 229 229 223 217 220 223 223 222 223 223 218 219 224 217 209 211 218 220 220 230 226 209 205 191 165 156 158 160 152 144 137 132 129 125 125 130 128 122 117 113 109 108 109 111 112 111 109 105 96 85 73 61 51 41 33 25 18 15 10 9 6 5 4 1 358 355 352 350 348 348 347 346
63 46 23 0 339 27 166 179 186 202 215 232 249 243 229 216 209 215 221 223 223 223 222 217 214 217 214 207 205 207 206 202 215 226 212 203 198 178 162 159 166 161 151 147 146 139 130 127 128 128 123 121 119 116 116 118 119 118 116 110 101 89 78 69 59 51 41 35 28 22 19 16 15 15 14 14 11 8 4 359 355 350 348 346 343
53 36 20 4 359 85 151 172 183 203 216 236 256 245 220 207 203 212 217 218 221 225 227 222 213 208 207 203 199 196 196 196 205 219 217 211 206 192 176 165 166 167 162 159 156 147 136 135 135 130 127 127 124 122 124 127 130 128 122 112 101 91 86 79 70 63 57 53 46 37 30 27 26 26 24 22 19 16 13 8 4 359 355 352 349
45 27 14 9 20 103 148 171 188 212 232 251 264 246 221 209 209 220 224 223 223 224 226 224 217 209 207 205 198 195 195 196 200 208 213 217 215 202 195 190 180 175 172 171 167 160 149 143 140 135 133 134 131 131 136 139 142 140 134 124 112 107 101 91 80 71 66 62 57 49 42 38 34 27 21 19 15 12 10 7 3 360 356 352 349
39 19 9 8 20 107 155 176 198 225 260 278 282 252 223 212 215 225 230 229 226 226 226 222 219 217 215 211 202 197 195 191 192 198 203 211 215 207 208 236 249 192 178 172 170 165 157 152 149 142 141 142 141 143 146 151 153 151 146 139 131 125 112 94 80 69 61 56 50 45 41 37 33 24 16 14 12 10 8 6 3 360 356 352 347
36 15 2 1 12 107 200 218 223 227 248 265 268 241 216 210 216 221 224 225 223 225 225 220 222 223 219 218 211 200 192 188 189 192 192 197 204 211 218 233 278 232 189 169 162 162 159 159 157 151 149 149 150 154 157 162 163 163 163 161 153 145 122 93 77 63 52 44 39 34 29 26 22 16 12 11 9 8 6 4 2 359 356 352 346
27 8 354 352 6 189 221 247 247 223 233 261 233 208 200 205 209 203 202 208 208 209 216 224 233 237 228 222 216 203 193 191 192 189 184 186 196 211 222 216 213 233 189 161 155 159 162 164 163 159 159 159 159 161 166 170 173 178 183 181 175 165 140 98 75 58 44 36 29 24 19 15 13 10 9 6 4 3 2 1 0 358 356 352 346
16 2 348 342 321 201 216 235 232 213 233 280 231 183 183 190 187 170 173 187 193 191 202 236 257 270 256 224 211 202 195 192 192 189 183 186 201 214 219 215 194 177 167 154 148 153 158 164 171 172 169 170 171 169 172 177 180 184 188 188 190 182 163 119 67 44 33 25 17 13 9 6 5 5 4 2 360 359 357 357 357 357 356 352 347
355 348 337 318 246 214 217 227 215 202 228 275 220 172 171 174 170 158 161 174 185 186 195 236 274 314 316 214 201 197 192 188 189 189 188 193 207 214 215 215 201 181 175 170 161 161 164 169 176 183 184 182 181 178 178 179 181 188 191 196 207 204 197 208 342 4 8 6 1 359 358 357 357 358 357 356 355 354 352 352 354 354 354 353 349
332 330 302 248 226 219 219 229 217 209 229 260 200 180 175 178 186 176 172 176 176 180 200 215 234 24 36 137 191 190 184 182 182 187 193 199 204 206 208 213 214 210 207 204 197 192 190 185 185 191 193 192 192 188 183 180 183 192 197 204 218 221 229 255 285 312 331 340 342 344 347 350 352 351 351 351 350 349 349 349 351 352 352 351 348
323 309 255 221 215 216 218 226 226 226 244 254 200 189 186 187 198 204 200 189 171 152 206 199 159 70 52 105 176 179 175 174 175 182 189 193 197 200 202 208 217 226 229 228 224 220 220 216 210 209 204 200 199 195 189 187 189 197 203 212 226 235 250 264 270 285 304 317 325 333 340 344 345 346 346 346 345 346 346 347 348 349 349 348 345
317 294 244 215 212 218 221 226 232 239 252 247 203 196 195 192 196 207 215 209 195 196 234 227 192 142 110 142 172 171 168 168 170 178 187 193 201 211 217 221 228 235 240 241 239 234 233 237 241 233 217 208 204 200 197 197 198 204 211 221 235 248 261 266 269 281 294 305 315 326 333 336 338 340 341 341 341 342 343 344 346 345 344 342 339
1 99 143 148 151 146 151 187 216 233 243 226 193 196 200 200 201 207 214 212 204 208 221 230 237 222 155 157 170 168 167 170 174 181 191 199 207 216 226 235 240 243 246 248 248 245 241 243 253 248 227 215 209 205 205 206 208 213 219 226 237 248 258 264 270 279 287 296 308 319 325 329 332 335 336 337 338 339 340 341 341 341 339 337 335
129 121 126 125 116 101 87 82 97 129 201 195 179 185 197 206 212 217 219 212 206 210 217 222 230 231 211 188 181 177 175 176 179 186 192 200 213 229 241 245 246 245 244 246 248 250 249 248 253 252 237 224 214 208 209 213 219 225 229 233 240 248 255 260 265 272 280 290 302 312 319 324 328 331 333 335 335 335 336 337 337 336 335 333 331
160 138 123 116 107 99 88 79 81 82 77 93 165 193 207 215 224 232 232 219 209 211 220 229 232 226 214 207 203 200 198 197 198 207 219 232 246 255 258 256 253 250 247 247 249 252 253 250 249 250 242 230 221 215 214 217 222 229 234 239 244 249 254 259 265 270 278 288 298 307 314 320 325 328 330 332 331 331 331 333 333 332 331 328 325
179 161 136 121 112 108 99 86 78 73 68 60 50 272 236 234 235 249 254 234 218 213 219 229 231 222 211 210 211 216 223 228 230 235 247 259 263 262 261 260 258 253 251 250 250 251 253 251 250 251 248 238 230 225 223 225 229 234 239 243 246 251 256 260 264 269 275 284 294 302 310 317 321 325 327 328 328 327 329 329 329 328 327 324 321
196 183 166 156 152 142 121 94 60 52 50 39 29 19 342 265 247 252 262 250 223 209 211 220 221 217 213 213 217 223 230 236 239 242 248 255 259 264 269 270 266 259 254 250 247 247 247 248 250 253 250 243 237 233 232 237 242 246 249 250 249 251 254 256 260 264 269 276 287 296 304 311 316 319 322 323 323 324 325 326 326 325 323 320 318
208 199 196 191 184 182 175 173 344 4 19 14 5 1 359 343 295 261 255 253 233 214 213 219 219 221 222 224 228 232 236 240 242 244 245 246 252 261 267 270 270 267 263 258 253 250 248 250 253 254 252 249 246 242 242 245 246 246 248 252 253 252 252 253 255 259 265 272 281 290 298 304 311 316 319 320 319 321 323 323 323 322 321 319 317
214 213 218 218 208 201 198 209 242 276 308 330 337 334 332 330 326 311 273 257 251 244 241 237 235 235 238 241 243 244 246 248 250 252 252 251 254 258 262 265 267 266 265 264 261 257 255 255 256 255 254 255 255 252 250 248 246 245 247 251 254 254 253 254 254 258 265 271 278 285 294 301 309 314 316 316 317 319 320 321 322 321 319 318 317
216 220 228 232 229 223 220 225 236 245 251 256 265 280 285 285 290 295 292 277 268 266 265 264 263 262 260 261 260 258 256 256 257 260 261 261 260 260 261 263 264 265 264 264 264 263 261 260 259 257 257 258 259 257 256 256 255 253 252 252 254 255 254 254 254 258 263 269 275 283 292 300 306 311 312 313 315 317 318 319 320 319 318 317 316
220 223 229 236 238 237 238 240 245 249 250 250 253 253 251 252 255 263 271 274 274 273 273 274 275 273 272 271 268 267 267 265 265 266 267 269 268 267 268 269 270 270 268 266 266 265 264 263 262 261 261 261 261 261 261 261 259 256 255 255 255 255 254 253 254 256 261 267 274 283 292 299 304 308 309 310 313 315 317 318 318 317 316 316 317
221 225 232 236 238 240 243 245 247 250 251 251 254 257 256 252 248 249 253 258 262 266 268 269 271 272 272 271 270 269 269 270 271 270 271 273 275 275 277 278 279 278 275 273 271 268 265 263 262 262 263 264 266 267 266 262 258 257 258 259 258 255 251 249 250 254 260 267 274 283 292 297 300 303 304 307 311 314 315 316 316 315 315 316 319
222 227 232 236 238 239 240 243 247 250 252 254 257 260 262 261 259 256 254 253 254 256 258 260 263 265 267 268 269 268 268 270 271 272 274 276 278 279 281 283 283 283 281 281 279 276 271 266 263 263 264 265 267 268 266 263 261 260 259 257 254 250 245 244 247 253 259 267 275 283 288 293 295 296 299 304 308 310 312 314 314 314 315 318 321
227 231 235 238 240 241 240 243 250 257 261 264 265 266 268 269 268 267 265 264 262 260 259 258 259 260 262 264 266 267 268 269 270 271 274 275 276 278 279 281 283 283 283 283 282 281 278 274 270 267 265 265 265 265 263 260 260 258 253 246 242 241 240 241 245 253 263 271 276 280 284 286 289 293 298 304 307 309 311 312 312 313 314 317 322
224 232 239 244 247 250 251 253 259 266 271 273 273 274 274 273 273 273 273 272 272 272 270 268 267 266 264 264 265 266 267 267 268 270 271 273 275 276 277 279 280 280 280 280 279 280 280 280 279 274 268 263 261 259 257 254 254 254 249 243 242 243 241 238 243 254 266 273 275 277 279 282 286 292 299 304 307 310 310 311 314 316 317 320 323
223 233 243 249 254 258 262 264 265 267 269 271 272 272 273 273 273 273 274 274 274 274 274 273 272 271 270 269 268 268 268 268 268 269 270 271 272 273 274 275 274 273 274 275 276 276 277 279 278 274 267 261 259 257 255 253 253 253 250 246 246 245 241 241 249 257 264 269 272 274 277 281 288 296 302 305 308 309 310 315 320 321 321 322 323
259 261 262 264 265 267 270 272 272 271 270 271 272 272 272 272 272 271 271 272 271 271 271 271 270 270 270 271 271 272 273 272 271 271 272 272 271 271 272 273 273 274 274 275 276 276 276 276 276 274 273 273 272 267 261 255 252 250 249 246 244 243 242 245 251 255 257 263 268 271 276 284 292 299 305 308 310 310 311 318 323 322 321 321 321